Gewässerkundlicher Dienst Bayern

Aktuelle Messwerte Röckersbühl

Globalstrahlung vom 28.04.2026 bis zum 04.05.2026
Hinweis
Lufttemperatur- und Luftfeuchtegeber defekt
Globalstrahlung vom 28.04.2026 bis zum 04.05.2026
DatumGlobalstrahlung [W/m²]
04.05.2026 14:00704,2
04.05.2026 13:00803,2
04.05.2026 12:00865,3
04.05.2026 11:00774,5
04.05.2026 10:00618,2
04.05.2026 09:00585,5
04.05.2026 08:00243,0
04.05.2026 07:00127,0
04.05.2026 06:0036,5
04.05.2026 05:000,0
04.05.2026 04:000,0
04.05.2026 03:000,0
04.05.2026 02:000,0
04.05.2026 01:000,0
04.05.2026 00:000,0
03.05.2026 23:000,0
03.05.2026 22:000,0
03.05.2026 21:000,0
03.05.2026 20:002,7
03.05.2026 19:0051,3
03.05.2026 18:00145,5
03.05.2026 17:00272,5
03.05.2026 16:00560,7
03.05.2026 15:00571,3
03.05.2026 14:00838,5
03.05.2026 13:00872,5
03.05.2026 12:00893,7
03.05.2026 11:00821,2
03.05.2026 10:00745,3
03.05.2026 09:00594,5
03.05.2026 08:00389,2
03.05.2026 07:00214,3
03.05.2026 06:0046,2
03.05.2026 05:000,0
03.05.2026 04:000,0
03.05.2026 03:000,0
03.05.2026 02:000,0
03.05.2026 01:000,0
03.05.2026 00:000,0
02.05.2026 23:000,0
02.05.2026 22:000,0
02.05.2026 21:000,0
02.05.2026 20:006,2
02.05.2026 19:0087,5
02.05.2026 18:00205,5
02.05.2026 17:00407,3
02.05.2026 16:00651,5
02.05.2026 15:00722,2
02.05.2026 14:00823,8
02.05.2026 13:00945,2
02.05.2026 12:00932,5
02.05.2026 11:00875,0
02.05.2026 10:00766,8
02.05.2026 09:00619,8
02.05.2026 08:00437,2
02.05.2026 07:00241,2
02.05.2026 06:0072,2
02.05.2026 05:000,0
02.05.2026 04:000,0
02.05.2026 03:000,0
02.05.2026 02:000,0
02.05.2026 01:000,0
02.05.2026 00:000,0
01.05.2026 23:000,0
01.05.2026 22:000,0
01.05.2026 21:000,0
01.05.2026 20:004,3
01.05.2026 19:00115,3
01.05.2026 18:00300,8
01.05.2026 17:00490,2
01.05.2026 16:00660,5
01.05.2026 15:00796,7
01.05.2026 14:00892,7
01.05.2026 13:00936,5
01.05.2026 12:00927,5
01.05.2026 11:00866,3
01.05.2026 10:00762,3
01.05.2026 09:00614,8
01.05.2026 08:00435,2
01.05.2026 07:00240,3
01.05.2026 06:0063,5
01.05.2026 05:000,0
01.05.2026 04:000,0
01.05.2026 03:000,0
01.05.2026 02:000,0
01.05.2026 01:000,0
01.05.2026 00:000,0
30.04.2026 23:000,0
30.04.2026 22:000,0
30.04.2026 21:000,0
30.04.2026 20:003,5
30.04.2026 19:00119,5
30.04.2026 18:00309,2
30.04.2026 17:00503,5
30.04.2026 16:00674,5
30.04.2026 15:00813,7
30.04.2026 14:00908,8
30.04.2026 13:00959,2
30.04.2026 12:00954,2
30.04.2026 11:00895,7
30.04.2026 10:00789,8
30.04.2026 09:00639,5
30.04.2026 08:00453,8
30.04.2026 07:00248,2
30.04.2026 06:0064,2
30.04.2026 05:000,0
30.04.2026 04:000,0
30.04.2026 03:000,0
30.04.2026 02:000,0
30.04.2026 01:000,0
30.04.2026 00:000,0
29.04.2026 23:000,0
29.04.2026 22:000,0
29.04.2026 21:000,0
29.04.2026 20:004,3
29.04.2026 19:00114,0
29.04.2026 18:00301,2
29.04.2026 17:00495,2
29.04.2026 16:00667,8
29.04.2026 15:00805,2
29.04.2026 14:00899,2
29.04.2026 13:00947,3
29.04.2026 12:00938,3
29.04.2026 11:00871,8
29.04.2026 10:00760,5
29.04.2026 09:00609,2
29.04.2026 08:00424,0
29.04.2026 07:00225,8
29.04.2026 06:0055,3
29.04.2026 05:000,0
29.04.2026 04:000,0
29.04.2026 03:000,0
29.04.2026 02:000,0
29.04.2026 01:000,0
29.04.2026 00:000,0
28.04.2026 23:000,0
28.04.2026 22:000,0
28.04.2026 21:000,0
28.04.2026 20:003,2
28.04.2026 19:0058,2
28.04.2026 18:00183,5
28.04.2026 17:00300,8
28.04.2026 16:00548,3
28.04.2026 15:00784,2
28.04.2026 14:00877,2
28.04.2026 13:00922,5
28.04.2026 12:00914,8
28.04.2026 11:00857,3
28.04.2026 10:00750,0
28.04.2026 09:00609,0
28.04.2026 08:00345,0
28.04.2026 07:00185,8
28.04.2026 06:0059,5
28.04.2026 05:000,0
28.04.2026 04:000,0
28.04.2026 03:000,0
28.04.2026 02:000,0
28.04.2026 01:000,0
28.04.2026 00:000,0
Ihre Auswahl wurde erfolgreich in den Download-Korb gelegt.